SCP
0 0 0 0 0 0 0 0 0 0 0 0 0 0 0 0 0 0 0 0 0 0 0 0 0 0 0 0 0 0 0 0 0 0 0 0 0 0 0 0 0 0 0
0 0 0 0 0 0 0 0 0 0 0 0 0 0 0 0 0 0 0 0 0 0 0 0 0 0 0 0 0 0 0 0 0 0 0 0 0 0 0 0 0 0 0
0 0 0 0 0 0 0 0 0 0 0 0 0 0 0 0 0 0 0 0 0 0 0 0 0 0 0 0 0 0 0 0 0 0 0 0 0 0 0 0 0 0 0
0 0 0 0 0 0 0 0 0 0 0 0 0 0 0 0 0 0 0 0 0 0 0 0 0 0 0 0 0 0 0 0 0 0 0 0 0 0 0 0 0 0 0
0 0 0 0 0 0 0 0 0 0 0 0 0 0 0 0 0 0 0 0 0 0 0 0 0 0 0 0 0 0 0 0 0 0 0 0 0 0 0 0 0 0 0
1 0 0 0 0 0 0 0 0 0 0 0 0 0 0 0 0 0 0 0 0 0 0 0 0 0 0 0 0 0 0 0 0 0 0 0 0 0 0 0 0 0 0
2 0 0 0 0 0 0 0 0 0 0 0 0 0 0 0 0 0 0 0 0 0 0 0 0 0 0 0 0 0 0 0 0 0 0 0 0 0 0 0 0 0 0
1 1 1 0 0 0 0 0 0 0 0 0 0 0 0 0 0 0 0 0 0 0 0 0 0 0 0 0 0 0 0 0 0 0 0 0 0 0 0 0 0 0 0
1 1 1 1 0 0 0 0 0 0 0 0 0 0 0 0 0 0 0 0 0 0 0 0 0 0 0 0 0 0 0 0 0 0 0 0 0 0 0 0 0 0 0
1 1 1 1 1 0 0 0 0 0 0 0 0 0 0 0 0 0 0 0 0 0 0 0 0 0 0 0 0 0 0 0 0 0 0 0 0 0 0 0 0 0 0
1 1 1 1 1 0 0 0 0 0 0 0 0 0 0 0 0 0 0 0 0 0 0 0 0 0 0 0 0 0 0 0 0 0 0 0 0 0 0 0 0 0 0
1 1 1 1 1 1 0 0 0 0 0 0 0 0 0 0 0 0 0 0 0 0 0 0 0 0 0 0 0 0 0 0 0 0 0 0 0 0 0 0 0 0 0
1 2 2 1 1 1 1 1 0 0 0 0 0 0 0 0 0 0 0 0 0 0 0 0 0 0 0 0 0 0 0 0 0 0 0 0 0 0 0 0 0 0 0
1 2 2 2 2 1 1 0 0 0 0 0 0 0 0 0 0 0 0 0 0 0 0 0 0 0 0 0 0 0 0 0 0 0 0 0 0 0 0 0 0 0 0
1 2 2 2 1 1 0 0 0 0 0 0 0 0 0 0 0 0 0 0 0 0 0 0 0 0 0 0 0 0 0 0 0 0 0 0 0 0 0 0 0 0 0
1 1 2 2 1 1 0 0 0 0 0 0 0 0 0 0 0 0 0 0 0 0 0 0 0 0 0 0 0 0 0 0 0 0 0 0 0 0 0 0 0 0 0
1 1 1 1 1 0 0 0 0 0 0 0 0 0 0 0 0 0 0 0 0 0 0 0 0 0 0 0 0 0 0 0 0 0 0 0 0 0 0 0 0 0 0
1 1 1 1 1 0 0 0 0 0 0 0 0 0 0 0 0 0 0 0 0 0 0 0 0 0 0 0 0 0 0 0 0 0 0 0 0 0 0 0 0 0 0
1 1 1 0 0 0 0 0 0 0 0 0 0 0 0 0 0 0 0 0 0 0 0 0 0 0 0 0 0 0 0 0 0 0 0 0 0 0 0 0 0 0 0
1 0 0 0 0 0 0 0 0 0 0 0 0 0 0 0 0 0 0 0 0 0 0 0 0 0 0 0 0 0 0 0 0 0 0 0 0 0 0 0 0 0 0
0 0 0 0 0 0 0 0 0 0 0 0 0 0 0 0 -0 0 0 0 0 0 0 0 0 0 0 0 0 0 0 0 0 0 0 0 0 0 0 0 0 0 0
0 0 0 0 0 0 0 0 0 0 0 0 0 0 0 0 -0 0 0 0 0 0 0 0 0 0 0 0 0 0 0 0 0 0 0 0 0 0 0 0 0 0 0
0 0 0 0 0 0 0 0 0 0 0 0 0 0 0 0 0 0 0 0 0 0 0 0 0 0 0 0 0 0 0 0 0 0 0 0 0 0 0 0 0 0 0
0 0 0 0 0 0 0 0 0 0 0 0 0 0 0 0 0 0 0 0 0 0 0 0 0 0 0 0 0 0 0 0 0 0 0 0 0 0 0 0 0 0 0
0 0 0 0 0 0 -0 0 0 0 0 0 0 0 0 0 0 0 0 0 0 0 0 0 0 0 0 0 0 0 0 0 0 0 0 0 0 0 0 0 0 0 0
0 0 0 0 0 0 0 -0 0 0 0 0 0 0 -0 -0 0 0 0 0 0 0 0 0 0 0 0 0 0 0 0 0 0 0 0 0 0 0 0 0 0 0 0
Wind_Speed_500mb
67 63 60 55 51 45 43 40 39 38 36 35 35 31 28 26 23 21 23 17 19 23 27 25 23 24 28 28 26 31 41 50 48 48 47 45 37 33 31 31 35 35 33
72 68 63 59 56 51 45 42 41 39 38 37 36 33 33 29 27 24 20 17 19 24 27 25 23 23 27 26 28 33 42 48 46 46 46 35 38 35 32 33 35 33 32
69 71 68 64 60 52 45 46 45 43 41 41 39 34 32 33 29 27 23 20 23 25 26 27 24 26 27 29 32 36 42 47 47 46 44 39 44 39 36 34 33 32 36
61 66 71 68 61 56 49 48 46 48 47 45 42 38 36 33 31 30 27 25 25 27 27 28 27 26 29 33 35 36 42 44 48 46 41 39 44 41 39 37 36 35 36
53 63 65 68 64 60 53 48 46 45 46 45 41 40 37 35 37 34 32 28 29 28 32 29 30 27 30 34 35 37 40 45 45 45 44 46 41 38 41 36 40 39 41
54 55 61 65 66 64 59 53 48 42 40 38 40 43 45 45 43 40 34 33 34 33 36 34 32 31 33 34 36 39 40 42 46 49 49 47 46 43 45 38 40 42 44
63 60 59 59 62 70 67 60 53 48 45 41 42 42 46 44 45 40 40 42 39 37 32 33 33 33 35 37 41 39 40 47 47 47 48 49 51 48 45 43 43 46 52
66 70 68 66 65 68 72 66 62 56 45 46 46 42 34 42 43 43 46 45 42 40 37 36 36 38 39 41 40 39 44 46 50 45 44 51 53 45 45 49 46 49 52
67 72 73 64 62 63 74 70 65 64 52 55 54 41 22 27 33 38 41 42 42 40 40 39 40 39 40 40 39 41 44 49 51 49 51 55 50 46 47 42 45 46 50
65 71 71 67 63 60 67 72 72 66 66 63 60 62 57 42 28 18 29 36 39 40 38 37 36 39 42 44 43 45 50 55 54 55 57 61 60 62 49 46 45 46 45
74 67 71 72 73 67 63 65 73 71 67 67 68 67 61 54 49 41 28 30 36 36 34 35 40 42 44 42 44 48 55 55 58 58 63 67 72 66 46 42 41 43 44
81 78 68 69 73 71 67 65 71 69 69 64 69 68 62 53 54 50 39 30 34 32 33 40 41 40 43 43 46 51 53 54 58 64 68 65 61 58 56 48 44 49 47
90 83 80 70 72 76 74 75 71 71 68 67 67 64 55 54 50 41 37 33 31 32 34 39 40 43 43 45 50 55 56 59 60 59 57 57 57 57 55 54 53 52 47
85 91 85 79 70 69 86 77 77 75 74 67 67 59 54 50 44 41 35 36 32 30 36 42 43 45 44 48 53 55 58 58 55 51 51 54 55 56 52 50 49 49 44
80 84 87 79 71 67 77 72 68 75 64 66 62 57 50 45 42 36 35 35 30 29 34 40 40 38 39 46 50 53 55 55 52 50 50 54 55 50 51 50 51 53 45
86 82 83 70 63 65 73 79 69 75 62 54 58 57 49 40 37 34 30 25 25 27 24 31 33 34 39 42 45 49 52 51 50 47 48 51 48 50 50 49 52 49 38
84 81 69 53 56 61 72 76 71 80 70 68 64 57 44 37 32 29 25 23 20 22 25 24 26 30 36 41 43 45 46 46 45 43 42 43 46 49 47 48 45 37 32
72 64 53 48 56 62 63 82 84 69 69 67 61 50 40 36 32 25 21 18 17 18 18 19 22 26 33 40 46 47 42 41 42 36 36 39 40 45 44 40 31 28 33
55 50 54 49 55 58 49 66 68 75 70 68 44 41 34 29 21 17 16 11 14 13 13 16 21 28 34 43 46 46 42 36 37 29 28 31 38 37 30 27 30 32 35
46 51 49 45 49 52 50 66 65 60 70 63 50 44 35 26 19 15 10 10 9 10 14 18 21 28 37 44 47 48 48 51 43 33 29 32 28 27 26 28 31 31 34
51 49 40 44 52 53 52 77 75 81 86 70 60 46 37 28 20 10 11 8 6 12 15 17 24 31 37 44 48 52 54 58 45 37 30 30 22 29 25 27 31 34 35
52 46 43 41 59 61 51 80 82 82 69 61 59 52 39 26 17 15 10 5 7 10 15 21 27 32 36 39 45 49 55 57 57 43 45 30 35 27 22 28 33 30 25
56 55 49 54 58 63 59 81 81 71 63 60 52 40 28 27 18 12 9 9 12 15 18 24 29 31 36 42 44 49 47 44 45 39 44 38 49 33 18 29 30 25 27
65 59 60 64 68 70 83 82 77 70 66 55 42 34 30 29 24 14 11 9 11 14 20 25 28 33 38 41 39 40 39 42 43 36 42 43 58 49 20 26 40 39 36
61 59 67 73 85 84 74 71 73 68 63 56 45 32 25 27 24 17 10 9 10 16 23 25 26 29 33 37 34 38 39 47 49 46 40 57 55 65 41 23 45 46 46
72 77 87 88 88 89 79 77 64 66 64 55 46 39 28 20 20 16 9 11 13 22 22 19 20 27 35 36 31 32 38 40 42 40 42 53 57 59 42 45 55 54 54
Wind_Direction_500mb
236 236 235 235 238 239 240 239 238 237 235 230 226 232 246 251 259 278 295 290 287 277 279 288 307 318 325 320 327 330 335 341 343 345 344 344 342 340 331 320 323 328 326
240 238 238 237 238 240 242 241 240 241 238 232 228 237 247 251 257 271 281 286 304 284 283 289 303 313 321 317 321 325 332 338 342 342 343 342 337 329 324 323 324 325 329
243 241 239 239 241 242 245 244 242 240 236 226 228 236 253 247 254 268 275 285 296 289 281 289 297 307 319 313 311 317 324 334 338 339 344 337 335 332 327 327 328 324 320
246 243 243 241 242 243 245 243 241 238 232 229 234 242 251 247 260 261 269 274 287 284 281 287 285 299 316 309 304 310 318 328 331 337 339 328 322 328 324 324 323 316 310
252 243 245 246 244 243 244 242 241 236 231 232 239 242 248 247 260 256 263 268 283 280 288 279 280 290 303 297 294 300 311 322 326 330 328 320 328 327 321 324 323 323 318
250 247 241 243 244 243 241 238 235 236 234 236 246 251 238 244 255 249 253 259 268 263 272 270 275 286 292 289 285 293 304 311 316 324 322 327 330 328 323 327 322 317 316
252 247 241 240 240 240 238 236 235 240 240 241 237 232 237 249 244 245 251 257 257 261 260 264 272 280 286 279 279 288 298 304 314 318 320 324 327 327 325 323 319 315 313
253 253 249 244 240 238 237 235 234 235 235 229 226 231 230 234 240 248 255 254 250 252 259 261 267 276 279 274 277 287 294 305 311 313 319 320 322 324 322 318 316 311 308
255 253 256 249 245 238 237 233 230 232 234 224 226 221 225 232 245 248 250 250 250 253 255 259 268 273 273 266 271 280 293 301 305 313 315 315 317 315 315 310 308 305 305
258 254 251 250 248 244 237 235 228 231 232 231 229 225 234 248 247 252 253 249 252 253 253 259 266 268 259 261 272 285 297 301 308 314 314 312 310 314 311 310 304 302 306
251 256 249 250 247 244 239 236 226 229 232 234 233 231 234 244 254 256 262 247 247 247 250 256 257 258 263 271 282 293 303 308 311 310 309 308 312 313 312 310 302 302 305
248 249 250 253 251 243 245 238 228 230 231 237 236 241 247 253 256 254 252 254 247 248 251 255 253 263 269 278 289 302 307 307 307 306 307 310 309 311 313 312 302 303 300
246 246 245 249 254 250 247 239 230 228 231 234 238 241 249 256 258 257 257 259 247 243 242 254 264 266 271 286 296 302 306 307 307 309 311 309 311 312 311 310 310 307 304
249 246 246 248 250 260 249 248 236 226 231 232 233 241 246 249 252 253 258 266 253 252 253 258 266 265 278 290 299 305 309 312 313 315 313 312 311 311 315 316 315 312 309
252 247 245 246 246 257 248 241 239 236 224 231 232 238 242 246 248 251 260 260 263 257 262 256 255 271 286 297 304 311 315 316 316 314 314 310 308 314 315 314 315 310 308
241 245 239 240 243 250 242 240 232 233 224 229 233 236 235 234 238 248 252 258 259 260 260 257 263 279 293 302 309 315 316 317 314 315 312 307 309 312 314 316 315 311 308
230 238 234 230 241 241 236 234 225 213 217 222 225 228 219 224 233 236 250 254 255 262 259 266 279 293 303 306 312 318 323 322 316 319 312 310 313 313 317 317 310 308 307
228 231 219 226 237 236 233 233 223 213 209 208 208 211 213 216 221 232 242 255 266 273 272 286 295 304 310 315 322 326 329 333 325 324 316 320 318 316 314 313 312 313 311
224 213 214 223 228 231 236 226 218 214 206 203 202 204 211 210 213 227 238 256 270 273 292 303 314 320 322 322 325 331 337 343 345 342 338 330 328 336 335 341 334 335 334
196 194 210 222 223 221 225 218 209 201 198 185 203 207 201 194 201 213 221 238 255 295 317 327 329 329 329 329 335 341 348 351 358 357 360 350 1 357 350 349 343 327 323
187 198 208 208 219 220 213 216 209 201 198 187 186 172 173 179 191 189 212 227 293 326 333 333 333 337 338 342 346 352 352 348 4 1 12 8 352 350 343 337 335 333 333
187 194 191 200 204 195 212 197 194 170 173 160 163 161 164 167 179 200 210 266 334 352 340 340 345 352 350 347 351 353 358 356 1 5 2 10 0 358 348 348 348 343 344
181 182 185 189 192 184 194 166 163 152 146 149 154 157 147 157 157 143 101 49 18 357 346 359 1 1 357 354 350 355 1 355 354 355 354 4 6 11 359 18 4 343 339
174 174 174 178 178 168 165 158 146 146 141 136 138 134 144 136 122 108 75 48 14 348 3 14 14 9 0 357 353 357 357 356 356 359 358 349 358 4 356 16 11 358 349
160 163 168 160 151 143 147 139 141 142 134 130 121 125 131 124 112 97 69 42 18 18 23 26 21 11 4 354 351 359 2 356 354 356 354 350 356 348 1 4 7 1 359
155 148 138 136 136 135 141 141 138 129 124 124 130 125 117 119 115 102 86 67 56 46 39 37 27 13 5 355 353 359 354 350 346 347 348 342 347 349 339 342 360 3 359
Wind_Speed_850mb
67 63 60 55 51 45 43 40 39 38 36 35 35 31 28 26 23 21 23 17 19 23 27 25 23 24 28 28 26 31 41 50 48 48 47 45 37 33 31 31 35 35 33
72 68 63 59 56 51 45 42 41 39 38 37 36 33 33 29 27 24 20 17 19 24 27 25 23 23 27 26 28 33 42 48 46 46 46 35 38 35 32 33 35 33 32
69 71 68 64 60 52 45 46 45 43 41 41 39 34 32 33 29 27 23 20 23 25 26 27 24 26 27 29 32 36 42 47 47 46 44 39 44 39 36 34 33 32 36
61 66 71 68 61 56 49 48 46 48 47 45 42 38 36 33 31 30 27 25 25 27 27 28 27 26 29 33 35 36 42 44 48 46 41 39 44 41 39 37 36 35 36
53 63 65 68 64 60 53 48 46 45 46 45 41 40 37 35 37 34 32 28 29 28 32 29 30 27 30 34 35 37 40 45 45 45 44 46 41 38 41 36 40 39 41
54 55 61 65 66 64 59 53 48 42 40 38 40 43 45 45 43 40 34 33 34 33 36 34 32 31 33 34 36 39 40 42 46 49 49 47 46 43 45 38 40 42 44
63 60 59 59 62 70 67 60 53 48 45 41 42 42 46 44 45 40 40 42 39 37 32 33 33 33 35 37 41 39 40 47 47 47 48 49 51 48 45 43 43 46 52
66 70 68 66 65 68 72 66 62 56 45 46 46 42 34 42 43 43 46 45 42 40 37 36 36 38 39 41 40 39 44 46 50 45 44 51 53 45 45 49 46 49 52
67 72 73 64 62 63 74 70 65 64 52 55 54 41 22 27 33 38 41 42 42 40 40 39 40 39 40 40 39 41 44 49 51 49 51 55 50 46 47 42 45 46 50
65 71 71 67 63 60 67 72 72 66 66 63 60 62 57 42 28 18 29 36 39 40 38 37 36 39 42 44 43 45 50 55 54 55 57 61 60 62 49 46 45 46 45
74 67 71 72 73 67 63 65 73 71 67 67 68 67 61 54 49 41 28 30 36 36 34 35 40 42 44 42 44 48 55 55 58 58 63 67 72 66 46 42 41 43 44
81 78 68 69 73 71 67 65 71 69 69 64 69 68 62 53 54 50 39 30 34 32 33 40 41 40 43 43 46 51 53 54 58 64 68 65 61 58 56 48 44 49 47
90 83 80 70 72 76 74 75 71 71 68 67 67 64 55 54 50 41 37 33 31 32 34 39 40 43 43 45 50 55 56 59 60 59 57 57 57 57 55 54 53 52 47
85 91 85 79 70 69 86 77 77 75 74 67 67 59 54 50 44 41 35 36 32 30 36 42 43 45 44 48 53 55 58 58 55 51 51 54 55 56 52 50 49 49 44
80 84 87 79 71 67 77 72 68 75 64 66 62 57 50 45 42 36 35 35 30 29 34 40 40 38 39 46 50 53 55 55 52 50 50 54 55 50 51 50 51 53 45
86 82 83 70 63 65 73 79 69 75 62 54 58 57 49 40 37 34 30 25 25 27 24 31 33 34 39 42 45 49 52 51 50 47 48 51 48 50 50 49 52 49 38
84 81 69 53 56 61 72 76 71 80 70 68 64 57 44 37 32 29 25 23 20 22 25 24 26 30 36 41 43 45 46 46 45 43 42 43 46 49 47 48 45 37 32
72 64 53 48 56 62 63 82 84 69 69 67 61 50 40 36 32 25 21 18 17 18 18 19 22 26 33 40 46 47 42 41 42 36 36 39 40 45 44 40 31 28 33
55 50 54 49 55 58 49 66 68 75 70 68 44 41 34 29 21 17 16 11 14 13 13 16 21 28 34 43 46 46 42 36 37 29 28 31 38 37 30 27 30 32 35
46 51 49 45 49 52 50 66 65 60 70 63 50 44 35 26 19 15 10 10 9 10 14 18 21 28 37 44 47 48 48 51 43 33 29 32 28 27 26 28 31 31 34
51 49 40 44 52 53 52 77 75 81 86 70 60 46 37 28 20 10 11 8 6 12 15 17 24 31 37 44 48 52 54 58 45 37 30 30 22 29 25 27 31 34 35
52 46 43 41 59 61 51 80 82 82 69 61 59 52 39 26 17 15 10 5 7 10 15 21 27 32 36 39 45 49 55 57 57 43 45 30 35 27 22 28 33 30 25
56 55 49 54 58 63 59 81 81 71 63 60 52 40 28 27 18 12 9 9 12 15 18 24 29 31 36 42 44 49 47 44 45 39 44 38 49 33 18 29 30 25 27
65 59 60 64 68 70 83 82 77 70 66 55 42 34 30 29 24 14 11 9 11 14 20 25 28 33 38 41 39 40 39 42 43 36 42 43 58 49 20 26 40 39 36
61 59 67 73 85 84 74 71 73 68 63 56 45 32 25 27 24 17 10 9 10 16 23 25 26 29 33 37 34 38 39 47 49 46 40 57 55 65 41 23 45 46 46
72 77 87 88 88 89 79 77 64 66 64 55 46 39 28 20 20 16 9 11 13 22 22 19 20 27 35 36 31 32 38 40 42 40 42 53 57 59 42 45 55 54 54
Wind_Direction_850mb
236 236 235 235 238 239 240 239 238 237 235 230 226 232 246 251 259 278 295 290 287 277 279 288 307 318 325 320 327 330 335 341 343 345 344 344 342 340 331 320 323 328 326
240 238 238 237 238 240 242 241 240 241 238 232 228 237 247 251 257 271 281 286 304 284 283 289 303 313 321 317 321 325 332 338 342 342 343 342 337 329 324 323 324 325 329
243 241 239 239 241 242 245 244 242 240 236 226 228 236 253 247 254 268 275 285 296 289 281 289 297 307 319 313 311 317 324 334 338 339 344 337 335 332 327 327 328 324 320
246 243 243 241 242 243 245 243 241 238 232 229 234 242 251 247 260 261 269 274 287 284 281 287 285 299 316 309 304 310 318 328 331 337 339 328 322 328 324 324 323 316 310
252 243 245 246 244 243 244 242 241 236 231 232 239 242 248 247 260 256 263 268 283 280 288 279 280 290 303 297 294 300 311 322 326 330 328 320 328 327 321 324 323 323 318
250 247 241 243 244 243 241 238 235 236 234 236 246 251 238 244 255 249 253 259 268 263 272 270 275 286 292 289 285 293 304 311 316 324 322 327 330 328 323 327 322 317 316
252 247 241 240 240 240 238 236 235 240 240 241 237 232 237 249 244 245 251 257 257 261 260 264 272 280 286 279 279 288 298 304 314 318 320 324 327 327 325 323 319 315 313
253 253 249 244 240 238 237 235 234 235 235 229 226 231 230 234 240 248 255 254 250 252 259 261 267 276 279 274 277 287 294 305 311 313 319 320 322 324 322 318 316 311 308
255 253 256 249 245 238 237 233 230 232 234 224 226 221 225 232 245 248 250 250 250 253 255 259 268 273 273 266 271 280 293 301 305 313 315 315 317 315 315 310 308 305 305
258 254 251 250 248 244 237 235 228 231 232 231 229 225 234 248 247 252 253 249 252 253 253 259 266 268 259 261 272 285 297 301 308 314 314 312 310 314 311 310 304 302 306
251 256 249 250 247 244 239 236 226 229 232 234 233 231 234 244 254 256 262 247 247 247 250 256 257 258 263 271 282 293 303 308 311 310 309 308 312 313 312 310 302 302 305
248 249 250 253 251 243 245 238 228 230 231 237 236 241 247 253 256 254 252 254 247 248 251 255 253 263 269 278 289 302 307 307 307 306 307 310 309 311 313 312 302 303 300
246 246 245 249 254 250 247 239 230 228 231 234 238 241 249 256 258 257 257 259 247 243 242 254 264 266 271 286 296 302 306 307 307 309 311 309 311 312 311 310 310 307 304
249 246 246 248 250 260 249 248 236 226 231 232 233 241 246 249 252 253 258 266 253 252 253 258 266 265 278 290 299 305 309 312 313 315 313 312 311 311 315 316 315 312 309
252 247 245 246 246 257 248 241 239 236 224 231 232 238 242 246 248 251 260 260 263 257 262 256 255 271 286 297 304 311 315 316 316 314 314 310 308 314 315 314 315 310 308
241 245 239 240 243 250 242 240 232 233 224 229 233 236 235 234 238 248 252 258 259 260 260 257 263 279 293 302 309 315 316 317 314 315 312 307 309 312 314 316 315 311 308
230 238 234 230 241 241 236 234 225 213 217 222 225 228 219 224 233 236 250 254 255 262 259 266 279 293 303 306 312 318 323 322 316 319 312 310 313 313 317 317 310 308 307
228 231 219 226 237 236 233 233 223 213 209 208 208 211 213 216 221 232 242 255 266 273 272 286 295 304 310 315 322 326 329 333 325 324 316 320 318 316 314 313 312 313 311
224 213 214 223 228 231 236 226 218 214 206 203 202 204 211 210 213 227 238 256 270 273 292 303 314 320 322 322 325 331 337 343 345 342 338 330 328 336 335 341 334 335 334
196 194 210 222 223 221 225 218 209 201 198 185 203 207 201 194 201 213 221 238 255 295 317 327 329 329 329 329 335 341 348 351 358 357 360 350 1 357 350 349 343 327 323
187 198 208 208 219 220 213 216 209 201 198 187 186 172 173 179 191 189 212 227 293 326 333 333 333 337 338 342 346 352 352 348 4 1 12 8 352 350 343 337 335 333 333
187 194 191 200 204 195 212 197 194 170 173 160 163 161 164 167 179 200 210 266 334 352 340 340 345 352 350 347 351 353 358 356 1 5 2 10 0 358 348 348 348 343 344
181 182 185 189 192 184 194 166 163 152 146 149 154 157 147 157 157 143 101 49 18 357 346 359 1 1 357 354 350 355 1 355 354 355 354 4 6 11 359 18 4 343 339
174 174 174 178 178 168 165 158 146 146 141 136 138 134 144 136 122 108 75 48 14 348 3 14 14 9 0 357 353 357 357 356 356 359 358 349 358 4 356 16 11 358 349
160 163 168 160 151 143 147 139 141 142 134 130 121 125 131 124 112 97 69 42 18 18 23 26 21 11 4 354 351 359 2 356 354 356 354 350 356 348 1 4 7 1 359
155 148 138 136 136 135 141 141 138 129 124 124 130 125 117 119 115 102 86 67 56 46 39 37 27 13 5 355 353 359 354 350 346 347 348 342 347 349 339 342 360 3 359